Date,TemperatureHighF,TemperatureAvgF,TemperatureLowF,DewpointHighF,DewpointAvgF,DewpointLowF,HumidityHigh,HumidityAvg,HumidityLow,PressureMaxIn,PressureMinIn,WindSpeedMaxMPH,WindSpeedAvgMPH,GustSpeedMaxMPH,PrecipitationSumIn
2013-3-1,61,47,35,22,15,7,37,27,18,30.47,30.28,9,4,12,0.00
2013-3-2,67,50,32,24,22,19,61,35,17,30.45,30.18,5,1,7,0.00
2013-3-3,70,52,34,24,17,-6,57,30,5,30.19,29.86,11,3,17,0.00
2013-3-4,63,56,48,25,21,16,36,26,16,30.05,29.71,11,4,18,0.00
2013-3-5,61,48,32,23,19,10,66,35,13,30.33,30.06,7,2,10,0.00
2013-3-6,67,54,44,27,23,17,40,30,18,30.20,29.89,8,3,12,0.00
2013-3-7,71,56,36,23,19,16,50,27,13,30.04,29.82,9,3,14,0.00
2013-3-8,61,49,39,44,27,15,86,47,21,29.92,29.69,14,4,17,0.17
2013-3-9,47,40,34,34,25,17,76,55,31,30.07,29.79,11,4,15,0.00
2013-3-10,53,42,30,29,24,15,83,54,25,30.25,30.06,9,2,10,0.00
2013-3-11,65,48,31,22,17,8,61,33,11,30.27,30.03,9,3,10,0.00
2013-3-12,68,54,37,25,22,20,54,32,17,30.23,30.09,7,2,12,0.00
2013-3-13,72,55,37,27,24,17,62,33,15,30.34,30.15,6,2,11,0.00
2013-3-14,76,58,42,25,19,12,45,25,9,30.30,30.10,6,2,8,0.00
2013-3-15,79,60,40,22,16,6,40,21,6,30.14,29.85,5,1,8,0.00
2013-3-16,73,61,48,35,22,15,47,23,13,29.86,29.62,12,4,16,0.00
2013-3-17,70,56,46,36,21,-17,62,35,3,29.79,29.61,12,4,20,0.00
2013-3-18,68,54,39,13,7,1,33,17,7,29.96,29.79,10,3,16,0.00
2013-3-19,63,52,42,19,11,5,32,20,13,30.17,29.95,9,2,14,0.00
2013-3-20,63,51,33,27,19,15,49,30,18,30.26,29.86,8,2,10,0.00
2013-3-21,73,61,51,33,19,-7,43,24,4,29.86,29.52,11,4,16,0.00
2013-3-22,67,53,36,28,14,5,39,22,10,29.76,29.55,14,4,20,0.00
2013-3-23,53,42,33,29,4,-16,52,24,8,30.15,29.67,18,7,22,0.00
2013-3-24,55,40,25,1,-5,-12,28,15,9,30.27,30.02,12,3,18,0.00
2013-3-25,57,42,26,12,8,1,47,26,15,30.32,30.14,9,2,12,0.00
2013-3-26,66,50,33,14,10,8,36,22,11,30.27,29.95,12,5,14,0.00
2013-3-27,71,59,44,17,12,6,31,17,9,30.05,29.87,9,3,14,0.00
2013-3-28,72,62,47,24,16,9,29,17,9,30.03,29.88,10,2,14,0.00
2013-3-29,75,62,47,25,21,14,41,23,10,30.09,29.92,6,2,9,0.00
2013-3-30,74,60,42,28,21,16,43,24,12,30.09,29.88,8,2,9,0.00
2013-3-31,74,62,50,33,28,26,42,29,18,30.00,29.82,7,2,9,0.00